Location: Potomac
(46.8816°N, 113.5795°W)
Time: 06:33:16
(UTC+00:00)

JY1SAT - Pass Details

Date: 05 July 2022
Orbit: 564 x 586 km, 97.6° (Epoch: 15 August)

Event Time Altitude Azimuth Distance (km) Brightness Sun altitude
Exits shadow 04:27:39 10° 143° (SE) 1,899 ? -8.1°
Maximum altitude 04:31:35 45° 71° (ENE) 812 ? -8.5°
Drops below altitude 10° 04:35:33 10° 359° (N) 1,920 ? -9.0°
Sets 04:37:47 0° 353° (N) 2,823 ? -9.2°
